TimePST,TemperatureF,Dew PointF,Humidity,Sea Level PressureIn,VisibilityMPH,Wind Direction,Wind SpeedMPH,Gust SpeedMPH,PrecipitationIn,Events,Conditions,WindDirDegrees,DateUTC
12:56 AM,43.0,37.0,80,29.99,10.0,SW,5.8,-,N/A,,Mostly Cloudy,230,2013-02-08 08:56:00
1:56 AM,44.1,37.9,79,29.99,10.0,WSW,9.2,-,N/A,,Mostly Cloudy,250,2013-02-08 09:56:00
2:56 AM,43.0,37.9,82,29.97,10.0,West,12.7,-,0.05,Rain,Rain,280,2013-02-08 10:56:00
3:56 AM,43.0,37.9,82,29.95,10.0,WSW,4.6,-,0.06,Rain,Light Rain,250,2013-02-08 11:56:00
4:56 AM,42.1,37.9,85,29.96,10.0,West,3.5,-,0.00,,Mostly Cloudy,260,2013-02-08 12:56:00
5:56 AM,42.1,37.9,85,29.97,10.0,West,3.5,-,N/A,,Mostly Cloudy,270,2013-02-08 13:56:00
6:56 AM,43.0,39.0,86,29.98,10.0,WNW,3.5,-,N/A,,Overcast,290,2013-02-08 14:56:00
7:56 AM,42.1,37.9,85,29.99,10.0,West,4.6,-,N/A,,Clear,280,2013-02-08 15:56:00
8:19 AM,44.6,37.4,76,30.00,10.0,NNW,6.9,-,N/A,,Mostly Cloudy,330,2013-02-08 16:19:00
8:56 AM,45.0,39.0,80,30.01,10.0,North,11.5,-,N/A,,Mostly Cloudy,350,2013-02-08 16:56:00
9:56 AM,46.0,39.0,76,30.03,10.0,North,11.5,-,N/A,,Mostly Cloudy,350,2013-02-08 17:56:00
10:56 AM,48.0,39.0,71,30.03,10.0,North,10.4,-,N/A,,Scattered Clouds,360,2013-02-08 18:56:00
11:56 AM,48.9,39.0,69,30.02,10.0,North,6.9,-,N/A,,Scattered Clouds,360,2013-02-08 19:56:00
12:56 PM,50.0,37.9,63,30.01,10.0,North,6.9,-,N/A,,Scattered Clouds,360,2013-02-08 20:56:00
1:56 PM,51.1,37.9,61,29.99,10.0,West,4.6,-,N/A,,Mostly Cloudy,270,2013-02-08 21:56:00
2:56 PM,51.1,36.0,56,29.99,10.0,West,15.0,-,N/A,,Scattered Clouds,260,2013-02-08 22:56:00
3:56 PM,51.1,39.0,63,29.98,10.0,WSW,15.0,-,N/A,,Scattered Clouds,250,2013-02-08 23:56:00
4:56 PM,51.1,39.0,63,29.97,10.0,West,15.0,-,N/A,,Scattered Clouds,260,2013-02-09 00:56:00
5:56 PM,48.9,41.0,74,29.97,10.0,West,9.2,-,N/A,,Scattered Clouds,280,2013-02-09 01:56:00
6:56 PM,48.9,41.0,74,29.98,10.0,West,8.1,-,N/A,,Partly Cloudy,270,2013-02-09 02:56:00
7:56 PM,48.9,39.0,69,29.99,10.0,WNW,8.1,-,N/A,,Clear,290,2013-02-09 03:56:00
8:56 PM,46.9,37.9,71,29.99,10.0,West,5.8,-,N/A,,Clear,270,2013-02-09 04:56:00
9:56 PM,52.0,33.1,49,29.99,10.0,NW,11.5,-,N/A,,Clear,320,2013-02-09 05:56:00
10:56 PM,52.0,28.0,40,29.99,10.0,NW,13.8,-,N/A,,Clear,320,2013-02-09 06:56:00
11:56 PM,50.0,30.9,48,30.00,10.0,WNW,9.2,-,N/A,,Clear,300,2013-02-09 07:56:00